Salt Flat, TX

12:13 AM CST on February 21, 2017 (GMT -0600)
Guadalupe Pass

Weather History for KGDP - August, 2013

Change the Weather History Date:

Thursday, August 29, 2013

  Actual Average Record
Temperature  
Mean Temperature 74 °F -  
Max Temperature 84 °F 81 °F 100 °F (2011)
Min Temperature 64 °F 62 °F 57 °F (1998)
Cooling Degree Days 9    
Growing Degree Days 24 (Base 50)    
Moisture  
Dew Point 62 °F    
Average Humidity 79    
Maximum Humidity 100    
Minimum Humidity 41    
Precipitation  
Precipitation 0.00 in - - ()
Sea Level Pressure  
Sea Level Pressure 30.15 in    
Wind  
Wind Speed 12 mph (WSW)    
Max Wind Speed 21 mph    
Max Gust Speed 23 mph    
Visibility 5 miles    
Events Fog    
Averages and records for this station are not official NWS values.
T = Trace of Precipitation, MM = Missing Value Source: NWS Daily Summary

Daily Weather History Graph

Daily Weather History Graph

Search for Another Location

Airport or City:

Trip Planner

Search our weather history database for the weather conditions in past years. The results will help you decide how hot, cold, wet, or windy it might be!

Date:

Astronomy

Aug. 29, 2013 Rise Set
Actual Time 6:33 AM MDT 7:26 PM MDT
Civil Twilight 6:08 AM MDT 7:51 PM MDT
Nautical Twilight 5:38 AM MDT 8:20 PM MDT
Astronomical Twilight 5:08 AM MDT 8:51 PM MDT
Moon 12:37 AM MDT (8/29) 2:46 PM MDT (8/29)
Length of Visible Light 13h 43m
Length of Day
12h 53m
Last Quarter, 37% of the Moon is Illuminated
Aug 29
Last Quarter
Sep 5
New
Sep 12
First Quarter
Sep 19
Full
Sep 26
Last Quarter

Hourly Weather History & Observations

Time (MDT) Temp. Heat Index Dew Point Humidity Pressure Visibility Wind Dir Wind Speed Gust Speed Precip Events Conditions
12:51 AM 69.1 °F - 61.0 °F 75% 30.04 in 9.0 mi NE 10.4 mph - 0.00 in   Mostly Cloudy
1:51 AM 69.1 °F - 59.0 °F 70% 30.04 in 9.0 mi NE 5.8 mph - N/A   Overcast
2:51 AM 69.1 °F - 60.1 °F 73% 30.04 in 9.0 mi NE 4.6 mph - N/A   Overcast
3:51 AM 66.9 °F - 61.0 °F 81% 30.04 in 9.0 mi West 4.6 mph - N/A   Overcast
4:21 AM 64.9 °F - 63.0 °F 93% 30.28 in 1.5 mi WSW 17.3 mph - N/A   Mostly Cloudy
4:24 AM 64.9 °F - 64.0 °F 97% 30.28 in 0.2 mi SW 15.0 mph - N/A Fog Fog
4:30 AM 64.9 °F - 64.9 °F 100% 30.28 in 0.2 mi WSW 13.8 mph - N/A Fog Fog
4:51 AM 64.9 °F - 64.9 °F 100% 30.05 in 0.2 mi WSW 15.0 mph - N/A Fog Fog
5:12 AM 64.0 °F - 64.0 °F 100% 30.28 in 1.0 mi SW 12.7 mph - N/A   Overcast
5:16 AM 64.0 °F - 64.0 °F 100% 30.28 in 3.0 mi SW 13.8 mph - N/A   Overcast
5:29 AM 64.0 °F - 64.0 °F 100% 30.28 in 6.0 mi SW 16.1 mph - N/A   Overcast
5:32 AM 64.0 °F - 64.0 °F 100% 30.28 in 1.5 mi WSW 15.0 mph - N/A   Overcast
5:36 AM 64.0 °F - 64.0 °F 100% 30.28 in 0.2 mi WSW 16.1 mph - N/A Fog Fog
5:51 AM 64.0 °F - 64.0 °F 100% 30.06 in 0.2 mi WSW 13.8 mph - N/A Fog Fog
6:51 AM 64.0 °F - 64.0 °F 100% 30.08 in 0.2 mi SW 16.1 mph - N/A Fog Fog
7:49 AM 64.4 °F - 64.4 °F 100% 30.31 in 0.8 mi WSW 13.8 mph - N/A   Mist
7:51 AM 64.0 °F - 64.0 °F 100% 30.12 in 2.5 mi SW 13.8 mph - N/A   Overcast
7:58 AM 64.0 °F - 64.0 °F 100% 30.31 in 4.0 mi SW 15.0 mph - N/A   Overcast
8:03 AM 64.9 °F - 64.9 °F 100% 30.31 in 0.8 mi WSW 15.0 mph - N/A   Mist
8:11 AM 64.9 °F - 64.9 °F 100% 30.32 in 0.2 mi SW 15.0 mph - N/A Fog Fog
8:22 AM 64.9 °F - 64.9 °F 100% 30.32 in 0.2 mi WSW 16.1 mph - N/A Fog Fog
8:35 AM 64.9 °F - 64.0 °F 97% 30.32 in 1.0 mi WSW 18.4 mph - N/A   Overcast
8:37 AM 64.0 °F - 63.0 °F 96% 30.32 in 4.0 mi SW 19.6 mph - N/A   Overcast
8:51 AM 64.0 °F - 63.0 °F 96% 30.12 in 7.0 mi SW 17.3 mph - N/A   Mostly Cloudy
9:51 AM 68.0 °F - 63.0 °F 84% 30.13 in 8.0 mi SW 20.7 mph - N/A   Clear
10:51 AM 72.0 °F - 61.0 °F 68% 30.13 in 9.0 mi SSW 9.2 mph - N/A   Clear
11:51 AM 73.9 °F - 61.0 °F 64% 30.12 in 9.0 mi SSW 11.5 mph 19.6 mph N/A   Clear
12:51 PM 79.0 °F - 61.0 °F 54% 30.09 in 9.0 mi WSW 9.2 mph - N/A   Clear
1:51 PM 80.1 °F 81.1 °F 61.0 °F 52% 30.06 in 9.0 mi Variable 4.6 mph - N/A   Clear
2:51 PM 82.0 °F 82.1 °F 59.0 °F 45% 30.04 in 9.0 mi SW 11.5 mph 23.0 mph N/A   Clear
3:51 PM 82.9 °F 82.6 °F 57.9 °F 42% 30.03 in 9.0 mi SW 8.1 mph - N/A   Clear
4:51 PM 84.0 °F 83.5 °F 57.9 °F 41% 30.01 in 9.0 mi WSW 10.4 mph - N/A   Clear
5:51 PM 81.0 °F 81.0 °F 57.0 °F 44% 30.03 in 9.0 mi SW 11.5 mph - N/A   Clear
6:51 PM 78.1 °F - 57.0 °F 48% 30.04 in 8.0 mi SW 5.8 mph - N/A   Clear
7:51 PM 75.9 °F - 55.9 °F 50% 30.06 in 10.0 mi West 3.5 mph - N/A   Clear
8:51 PM 75.0 °F - 57.0 °F 53% 30.07 in 10.0 mi WSW 6.9 mph - N/A   Clear
9:51 PM 73.9 °F - 57.0 °F 55% 30.07 in 10.0 mi West 6.9 mph - N/A   Clear
10:51 PM 75.0 °F - 57.0 °F 53% 30.05 in 10.0 mi WSW 8.1 mph - N/A   Clear
11:51 PM 73.0 °F - 55.9 °F 55% 30.05 in 10.0 mi WSW 4.6 mph - N/A   Clear